www.pogodaiklimat.ru

ПОГОДА в Токсук-Бее, AK

  • Прогноз погоды в Токсук-Бее
  • Монитор погоды в Токсук-Бее
  • Климат в Токсук-Бее

АРХИВ ПОГОДЫ в Токсук-Бее

Время (UTC), дата Ветер
(напр.,м/с)
 
Видим.   Явления Облачность Т
(С)
Тd
(С)
f
(%)
Тe
(С)
Тes
(С)
Комфортность

P
(гПа)

Po
(гПа)
Тmin
(С)
Tmax
(С)
R
(мм)
SD
(см)
19:56 25.03 ЮВ  16  4 км  слабый дождь, дымка  10/10 120 м  +1.7  +1.1  96  -8  -8    994.9  991.7      2.0   
20:07 25.03 ЮВ  16
{19} 
5 км  слабый дождь, дымка  10/10 120 м  +2.0  +1.0  93  -8  -8      991.7         
20:56 25.03 ЮВ  14  6 км  слабый дождь, дымка  10/10 180 м  +1.7  +1.1  96  -8  -8    995.8  992.3         
21:47 25.03 ЮВ  13  6 км  слабый дождь, дымка  10/10 120 м  +2.0  +1.0  93  -7  -7      993.4         
21:56 25.03 ЮВ  13  6 км  неопределенные осадки, дымка  10/10 120 м  +1.7  +1.1  96  -7  -7    996.9  993.7         
22:07 25.03 ЮВ  11  6 км  дымка  10/10 120 м  +2.0  +1.0  93  -6  -6      993.7         
22:56 25.03 ЮВ  11  6 км  дымка  10/10 150 м  +1.7  +1.1  96  -7  -7    997.9  994.7  +1.7  +1.7  2.3   
23:12 25.03 ЮВ  11  6 км  дымка  10/10 90 м  +2.0  +1.0  93  -6  -6      994.7         
23:44 25.03 ЮВ  11  8 км  дымка  10/10 150 м  +2.0  +1.0  93  -6  -6      995.0         
23:56 25.03 ЮВ  11  8 км  дымка  10/10 150 м  +1.7  +1.1  96  -7  -7    998.2  995.0         
00:12 26.03 ЮВ  11  8 км  дымка  10/10 150 м  +2.0  +1.0  93  -6  -6      994.7         
00:56 26.03 ЮВ  11  11 км    10/10 1800 м  +1.7  +0.6  92  -7  -7    998.8  995.4         
01:56 26.03 ЮВ  11  8 км  дымка  10/0 2100 м
[средняя] 
+1.7  0.0  88  -7  -7    999.5  996.1         
02:56 26.03 ЮВ  11  8 км  дымка  10/2 750 м
[средняя] 
+1.7  +0.6  92  -7  -7    1000.0  996.7         
03:36 26.03 ЮВ  10  8 км  дымка  8/8 750 м
[средняя] 
+1.0  0.0  93  -7  -7      997.1         
03:53 26.03 ЮВ  10  8 км  дымка  5/5 750 м  +1.0  0.0  93  -8  -8      997.1         
03:56 26.03 ЮВ  10  8 км  дымка  2/2 750 м  +1.1  0.0  92  -7  -7    1000.4  997.1         
04:56 26.03 ЮВ  10  8 км  дымка  ясно  +0.6  -0.6  92  -8  -8    1001.1  997.8  +0.6  +1.7     
05:56 26.03 ЮВ  10  10 км  дымка  ясно  +0.6  -0.6  92  -8  -8    1001.8  998.4         
06:41 26.03 ЮВ  11  10 км  дымка  8/8 750 м  +1.0  -1.0  86  -8  -8      998.8         
06:56 26.03 ЮВ  11  10 км  дымка  10/10 810 м  +0.6  -0.6  92  -8  -8    1001.9  998.4         
07:29 26.03 ЮВ  11  10 км  дымка  10/10 960 м  0.0  -1.0  93  -9  -9      999.1         
07:56 26.03 ЮВ  10  10 км  дымка  10/10 960 м  0.0  -1.1  92  -9  -9    1002.9  999.8         
08:56 26.03 ЮВ  10  10 км  дымка  10/10 1110 м  0.0  -0.6  96  -9  -9    1004.1  1000.8         
09:56 26.03 ЮВ  10  10 км  дымка  2/2 1050 м  +0.6  -1.1  88  -8  -8    1004.2  1000.8         
10:56 26.03 ЮВ  10  8 км  дымка  ясно  -0.6  -1.1  96  -10  -10    1005.0  1001.8  -0.6  +0.6     
11:56 26.03 ЮВ  10 км  дымка  ясно  -0.6  -1.1  96  -9  -9    1005.5  1002.1         
12:56 26.03 ЮВ  10  10 км  дымка  2/2 1230 м  0.0  -1.1  92  -9  -9    1005.8  1002.5         
13:13 26.03 ЮВ  10 км  дымка  8/8 600 м  -1.0  -1.0  100  -10  -10      1002.5         
13:56 26.03 ЮВ  10 км  дымка  10/10 540 м  -0.6  -1.1  96  -9  -9    1006.1  1002.8         
14:56 26.03 ЮВ  10  10 км  дымка  10/10 660 м  0.0  -0.6  96  -9  -9    1006.3  1003.2         
15:40 26.03 ЮВ  8 км  дымка  10/10 570 м  0.0  -1.0  93  -8  -8      1003.8         
15:54 26.03 ЮВ  8 км  дымка  10/10 510 м  0.0  -1.0  93  -8  -8      1003.8         
15:56 26.03 ЮВ  8 км  дымка  10/10 570 м  0.0  -1.1  92  -8  -8    1007.4  1004.2         
16:33 26.03 ЮВ  8 км  дымка  10/10 630 м  +1.0  -1.0  86  -7  -7      1004.2         
16:49 26.03 ЮВ  8 км  дымка  10/10 750 м  +1.0  -1.0  86  -7  -7      1004.5         
16:56 26.03 ЮВ  6 км  дымка  10/10 450 м  +0.6  -0.6  92  -7  -7    1008.0  1004.8  -0.6  +0.6     
17:11 26.03 ЮВ  6 км  дымка  10/10 390 м  +1.0  -1.0  86  -7  -7      1004.8         
17:54 26.03 Ю  10  8 км  дымка  10/10 270 м  +1.0  0.0  93  -8  -8      1004.8         
17:56 26.03 Ю  8 км  дымка  10/10 270 м  +1.1  0.0  92  -7  -7    1008.1  1004.8         
18:56 26.03 Ю  10 км  дымка  8/8 210 м  +1.7  0.0  88  -6  -6    1009.0  1005.5         
19:07 26.03 Ю  8 км  дымка  2/2 780 м  +2.0  0.0  87  -6  -6      1005.2         
19:31 26.03 Ю  8 км  дымка  5/5 180 м  +2.0  0.0  87  -6  -6      1005.5         
19:43 26.03 Ю  10  8 км  дымка  8/8 180 м  +2.0  0.0  87  -6  -6      1006.2         
19:54 26.03 Ю  10  8 км  дымка  8/8 180 м  +2.0  0.0  87  -6  -6      1006.2         
19:56 26.03 Ю  8 км  дымка  8/8 180 м  +1.7  +0.6  92  -6  -6    1009.7  1006.2         
20:15 26.03 Ю  10
{13} 
10 км  дымка  5/5 180 м  +2.0  +1.0  93  -6  -6      1005.5         
20:33 26.03 ЮВ  10 км  дымка  8/8 180 м  +2.0  0.0  87  -6  -6      1006.2         

 

Местоположение метеостанции Toksook Bay Airport: широта 60.5335 долгота -165.1143 высота над уровнем моря 18 м.

В архиве по умолчанию представлена погода в Токсук-Бее за последние 1-2 суток. Обновление информации о фактической погоде в базе происходит ежечасно! Архивные данные за месяц целиком и за предыдущие месяцы Вы можете получить, выбрав интересующий диапазон дат из раскрывающегося списка и нажав кнопку "Ввод!".

Внимание! Архив погоды МЕТАР в базе сайта хранится не более 60 дней. Нет смысла пытаться выбрать более раннюю дату.

Внимание! Время в таблицах - всемирное. Для получения местного времени необходимо прибавить поправку, которая в Токсук-Бее равна -9 ч.

Ветер - указаны скорость ветра в м/с и направление, откуда дует ветер: С - северный, СВ - северо-восточный, В - восточный, ЮВ - юго-восточный, Ю - южный, ЮЗ - юго-западный, З - западный, СЗ - северо-западный.
Видимость - горизонтальная дальность видимости в метрах или километрах. При видимости от 1 до 10 км при отсутствии осадков обычно наблюдается дымка, при ухудшении видимости до 1 км и менее - туман. В сухую погоду видимость может ухудшаться дымом, пылью или мглою.
Атмосферные явления - указаны явления, наблюдавшиеся в указанный момент времени.
Облачность - указаны через наклонную черту верхняя и нижняя облачность в баллах и высота нижней границы облаков в метрах. Внимание: облачность, как и прочие метеорологические величины в США измеряются автоматическими метеостанциями. Указанные значения в баллах носят условный характер и показывают процент времени, в течение которого, в среднем, лазерный луч высотомера отражался от облаков обратно.
T - Температура воздуха - температура, измеренная на высоте 2 м над землей.
Td - Температура точки росы - температура, при понижении до которой содержащийся в воздухе водяной пар достигнет насыщения.
f - Относительная влажность воздуха - влажноcть воздуха, измеренная на высоте 2 м над землей.
Te - Эффективная температура - температура, которую ощущает одетый по сезону человек в тени. Характеристика душности погоды. При расчете учитывается влияние влажности воздуха и скорости ветра на теплоощущения человека.
Tes - Эффективная температура на солнце - температура, которую ощущает человек, с поправкой на солнечный нагрев. Характеристика знойности погоды. Зависит от высоты солнца над горизонтом, облачности и скорости ветра. Ночью, в пасмурную погоду, а также при ветре 12 м/с и более поправка равна нулю.
P - Атмосферное давление - приведенное к уровню моря атмосферное давление.
Po - Атмосферное давление - измеренное на уровне метеостанции атмосферное давление.
Tmin - Минимальная температура - минимум температуры воздуха на высоте 2 м над землей.
Tmax - Максимальная температура - максимум температуры воздуха на высоте 2 м над землей.
R - Количество осадков - Количество выпавших осадков за 3 или 6 часов, мм.
SD - Снежный покров - Высота снежного покрова, см.